Time,TemperatureF,DewpointF,PressureIn,WindDirection,WindDirectionDegrees,WindSpeedMPH,WindSpeedGustMPH,Humidity,HourlyPrecipIn,Conditions,Clouds,dailyrainin,SoftwareType,DateUTC
2013-04-01 00:02:00,51.0,29.0,26.88,NNE,22,7.0,9.0,41,0.00,,,0.00,Rainwise IP-100,2013-04-01 06:02:00,
2013-04-01 00:07:00,51.0,28.0,26.88,NNE,22,7.0,7.0,40,0.00,,,0.00,Rainwise IP-100,2013-04-01 06:07:00,
2013-04-01 00:12:00,51.0,29.0,26.88,NE,45,1.0,8.0,42,0.00,,,0.00,Rainwise IP-100,2013-04-01 06:12:00,
2013-04-01 00:17:00,52.0,29.0,26.89,ENE,67,5.0,10.0,41,0.00,,,0.00,Rainwise IP-100,2013-04-01 06:17:00,
2013-04-01 00:22:00,52.0,29.0,26.89,NE,45,2.0,7.0,41,0.00,,,0.00,Rainwise IP-100,2013-04-01 06:22:00,
2013-04-01 00:27:00,51.0,29.0,26.88,East,90,0.0,6.0,41,0.00,,,0.00,Rainwise IP-100,2013-04-01 06:27:00,
2013-04-01 00:32:00,51.0,29.0,26.88,NE,45,3.0,6.0,41,0.00,,,0.00,Rainwise IP-100,2013-04-01 06:32:00,
2013-04-01 00:37:00,51.0,29.0,26.89,NNW,337,6.0,6.0,41,0.00,,,0.00,Rainwise IP-100,2013-04-01 06:37:00,
2013-04-01 00:42:00,51.0,29.0,26.89,NE,45,2.0,9.0,42,0.00,,,0.00,Rainwise IP-100,2013-04-01 06:42:00,
2013-04-01 00:47:00,50.0,28.0,26.89,NNW,337,4.0,6.0,42,0.00,,,0.00,Rainwise IP-100,2013-04-01 06:47:00,
2013-04-01 00:52:00,50.0,28.0,26.89,North,360,1.0,7.0,43,0.00,,,0.00,Rainwise IP-100,2013-04-01 06:52:00,
2013-04-01 00:57:00,50.0,28.0,26.89,WNW,292,5.0,5.0,43,0.00,,,0.00,Rainwise IP-100,2013-04-01 06:57:00,
2013-04-01 01:02:00,50.0,28.0,26.89,NE,45,5.0,6.0,42,0.00,,,0.00,Rainwise IP-100,2013-04-01 07:02:00,
2013-04-01 01:07:00,50.0,28.0,26.90,West,270,4.0,9.0,43,0.00,,,0.00,Rainwise IP-100,2013-04-01 07:07:00,
2013-04-01 01:12:00,50.0,28.0,26.90,ENE,67,2.0,7.0,43,0.00,,,0.00,Rainwise IP-100,2013-04-01 07:12:00,
2013-04-01 01:17:00,49.0,28.0,26.90,SE,135,1.0,3.0,43,0.00,,,0.00,Rainwise IP-100,2013-04-01 07:17:00,
2013-04-01 01:22:00,49.0,28.0,26.90,NNE,22,3.0,6.0,43,0.00,,,0.00,Rainwise IP-100,2013-04-01 07:22:00,
2013-04-01 01:27:00,49.0,28.0,26.91,WSW,247,1.0,7.0,44,0.00,,,0.00,Rainwise IP-100,2013-04-01 07:27:00,
2013-04-01 01:32:00,49.0,28.0,26.91,West,270,1.0,6.0,43,0.00,,,0.00,Rainwise IP-100,2013-04-01 07:32:00,
2013-04-01 01:37:00,49.0,28.0,26.91,NNE,22,3.0,6.0,43,0.00,,,0.00,Rainwise IP-100,2013-04-01 07:37:00,
2013-04-01 01:42:00,49.0,28.0,26.91,SSE,157,3.0,8.0,44,0.00,,,0.00,Rainwise IP-100,2013-04-01 07:42:00,
2013-04-01 01:47:00,49.0,28.0,26.91,SSE,157,2.0,11.0,43,0.00,,,0.00,Rainwise IP-100,2013-04-01 07:47:00,
2013-04-01 01:52:00,50.0,28.0,26.91,SSE,157,10.0,11.0,42,0.00,,,0.00,Rainwise IP-100,2013-04-01 07:52:00,
2013-04-01 01:57:00,49.0,28.0,26.91,ESE,112,5.0,10.0,42,0.00,,,0.00,Rainwise IP-100,2013-04-01 07:57:00,
2013-04-01 02:02:00,49.0,28.0,26.91,NW,315,4.0,12.0,42,0.00,,,0.00,Rainwise IP-100,2013-04-01 08:02:00,
2013-04-01 02:07:00,49.0,28.0,26.91,NNE,22,0.0,14.0,42,0.00,,,0.00,Rainwise IP-100,2013-04-01 08:07:00,
2013-04-01 02:12:00,49.0,28.0,26.91,ESE,112,8.0,10.0,42,0.00,,,0.00,Rainwise IP-100,2013-04-01 08:12:00,
2013-04-01 02:17:00,49.0,28.0,26.91,ESE,112,6.0,12.0,42,0.00,,,0.00,Rainwise IP-100,2013-04-01 08:17:00,
2013-04-01 02:22:00,50.0,28.0,26.91,East,90,7.0,12.0,42,0.00,,,0.00,Rainwise IP-100,2013-04-01 08:22:00,
2013-04-01 02:27:00,49.0,28.0,26.90,ESE,112,6.0,13.0,42,0.00,,,0.00,Rainwise IP-100,2013-04-01 08:27:00,
2013-04-01 02:32:00,49.0,28.0,26.90,ESE,112,3.0,13.0,42,0.00,,,0.00,Rainwise IP-100,2013-04-01 08:32:00,
2013-04-01 02:37:00,49.0,28.0,26.91,NE,45,3.0,10.0,43,0.00,,,0.00,Rainwise IP-100,2013-04-01 08:37:00,
2013-04-01 02:42:00,49.0,28.0,26.91,ESE,112,4.0,10.0,43,0.00,,,0.00,Rainwise IP-100,2013-04-01 08:42:00,
2013-04-01 02:47:00,49.0,28.0,26.91,ENE,67,5.0,13.0,43,0.00,,,0.00,Rainwise IP-100,2013-04-01 08:47:00,
2013-04-01 02:52:00,49.0,28.0,26.91,East,90,7.0,12.0,43,0.00,,,0.00,Rainwise IP-100,2013-04-01 08:52:00,
2013-04-01 02:57:00,49.0,28.0,26.92,NE,45,5.0,10.0,43,0.00,,,0.00,Rainwise IP-100,2013-04-01 08:57:00,
2013-04-01 03:02:00,48.0,28.0,26.92,ESE,112,6.0,9.0,43,0.00,,,0.00,Rainwise IP-100,2013-04-01 09:02:00,
2013-04-01 03:07:00,48.0,28.0,26.92,NNE,22,5.0,9.0,44,0.00,,,0.00,Rainwise IP-100,2013-04-01 09:07:00,
2013-04-01 03:12:00,48.0,28.0,26.92,East,90,2.0,9.0,45,0.00,,,0.00,Rainwise IP-100,2013-04-01 09:12:00,
2013-04-01 03:17:00,48.0,28.0,26.92,ENE,67,6.0,6.0,45,0.00,,,0.00,Rainwise IP-100,2013-04-01 09:17:00,
2013-04-01 03:22:00,47.0,26.0,26.92,ENE,67,6.0,8.0,45,0.00,,,0.00,Rainwise IP-100,2013-04-01 09:22:00,
2013-04-01 03:27:00,47.0,28.0,26.92,SSE,157,5.0,7.0,47,0.00,,,0.00,Rainwise IP-100,2013-04-01 09:27:00,
2013-04-01 03:32:00,46.0,28.0,26.92,WNW,292,4.0,6.0,49,0.00,,,0.00,Rainwise IP-100,2013-04-01 09:32:00,
2013-04-01 03:37:00,45.0,28.0,26.93,WNW,292,0.0,4.0,50,0.00,,,0.00,Rainwise IP-100,2013-04-01 09:37:00,
2013-04-01 03:42:00,44.0,28.0,26.93,NNE,22,2.0,3.0,51,0.00,,,0.00,Rainwise IP-100,2013-04-01 09:42:00,
2013-04-01 03:47:00,44.0,28.0,26.94,SE,135,1.0,5.0,53,0.00,,,0.00,Rainwise IP-100,2013-04-01 09:47:00,
2013-04-01 03:52:00,44.0,28.0,26.94,NE,45,1.0,4.0,52,0.00,,,0.00,Rainwise IP-100,2013-04-01 09:52:00,
2013-04-01 03:57:00,44.0,29.0,26.95,NE,45,0.0,2.0,55,0.00,,,0.00,Rainwise IP-100,2013-04-01 09:57:00,
2013-04-01 04:02:00,43.0,29.0,26.95,SSW,202,1.0,4.0,56,0.00,,,0.00,Rainwise IP-100,2013-04-01 10:02:00,
2013-04-01 04:07:00,42.0,29.0,26.95,SSW,202,0.0,3.0,58,0.00,,,0.00,Rainwise IP-100,2013-04-01 10:07:00,
2013-04-01 04:12:00,41.0,29.0,26.95,SSW,202,2.0,3.0,60,0.00,,,0.00,Rainwise IP-100,2013-04-01 10:12:00,
2013-04-01 04:17:00,41.0,29.0,26.97,WSW,247,0.0,3.0,61,0.00,,,0.00,Rainwise IP-100,2013-04-01 10:17:00,
2013-04-01 04:22:00,41.0,29.0,26.97,WNW,292,1.0,4.0,61,0.00,,,0.00,Rainwise IP-100,2013-04-01 10:22:00,
2013-04-01 04:27:00,40.0,29.0,26.97,SSW,202,1.0,4.0,62,0.00,,,0.00,Rainwise IP-100,2013-04-01 10:27:00,
2013-04-01 04:32:00,40.0,29.0,26.97,SSW,202,3.0,4.0,63,0.00,,,0.00,Rainwise IP-100,2013-04-01 10:32:00,
2013-04-01 04:37:00,39.0,28.0,26.97,WSW,247,1.0,4.0,64,0.00,,,0.00,Rainwise IP-100,2013-04-01 10:37:00,
2013-04-01 04:42:00,39.0,29.0,26.97,SSE,157,2.0,4.0,65,0.00,,,0.00,Rainwise IP-100,2013-04-01 10:42:00,
2013-04-01 04:47:00,39.0,29.0,26.98,SSE,157,0.0,3.0,66,0.00,,,0.00,Rainwise IP-100,2013-04-01 10:47:00,
2013-04-01 04:52:00,38.0,28.0,26.98,SSE,157,0.0,1.0,66,0.00,,,0.00,Rainwise IP-100,2013-04-01 10:52:00,
2013-04-01 04:57:00,38.0,29.0,26.98,SSE,157,1.0,1.0,68,0.00,,,0.00,Rainwise IP-100,2013-04-01 10:57:00,
2013-04-01 05:02:00,38.0,29.0,26.98,SSW,202,2.0,3.0,68,0.00,,,0.00,Rainwise IP-100,2013-04-01 11:02:00,
2013-04-01 05:07:00,38.0,29.0,26.99,SSE,157,3.0,6.0,69,0.00,,,0.00,Rainwise IP-100,2013-04-01 11:07:00,
2013-04-01 05:12:00,38.0,29.0,26.99,SSE,157,0.0,6.0,68,0.00,,,0.00,Rainwise IP-100,2013-04-01 11:12:00,
2013-04-01 05:17:00,37.0,28.0,26.99,SSE,157,0.0,0.0,69,0.00,,,0.00,Rainwise IP-100,2013-04-01 11:17:00,
2013-04-01 05:22:00,37.0,29.0,26.99,SSE,157,0.0,0.0,71,0.00,,,0.00,Rainwise IP-100,2013-04-01 11:22:00,
2013-04-01 05:27:00,37.0,29.0,26.99,SSE,157,5.0,5.0,74,0.00,,,0.00,Rainwise IP-100,2013-04-01 11:27:00,
2013-04-01 05:32:00,37.0,29.0,26.99,SSE,157,1.0,6.0,73,0.00,,,0.00,Rainwise IP-100,2013-04-01 11:32:00,
2013-04-01 05:37:00,37.0,29.0,26.99,ENE,67,1.0,5.0,72,0.00,,,0.00,Rainwise IP-100,2013-04-01 11:37:00,
2013-04-01 05:42:00,37.0,29.0,26.99,ENE,67,0.0,3.0,72,0.00,,,0.00,Rainwise IP-100,2013-04-01 11:42:00,
2013-04-01 05:47:00,36.0,28.0,26.99,ENE,67,0.0,0.0,73,0.00,,,0.00,Rainwise IP-100,2013-04-01 11:47:00,
2013-04-01 05:52:00,36.0,28.0,26.99,ENE,67,0.0,3.0,73,0.00,,,0.00,Rainwise IP-100,2013-04-01 11:52:00,
2013-04-01 05:57:00,36.0,28.0,27.00,ENE,67,0.0,1.0,73,0.00,,,0.00,Rainwise IP-100,2013-04-01 11:57:00,
2013-04-01 06:03:00,36.0,29.0,27.00,ENE,67,0.0,0.0,75,0.00,,,0.00,Rainwise IP-100,2013-04-01 12:03:00,
2013-04-01 06:08:00,35.0,28.0,27.00,ENE,67,0.0,0.0,76,0.00,,,0.00,Rainwise IP-100,2013-04-01 12:08:00,
2013-04-01 06:13:00,35.0,28.0,27.00,ENE,67,1.0,2.0,76,0.00,,,0.00,Rainwise IP-100,2013-04-01 12:13:00,
2013-04-01 06:18:00,35.0,28.0,27.00,SSE,157,4.0,5.0,77,0.00,,,0.00,Rainwise IP-100,2013-04-01 12:18:00,
2013-04-01 06:23:00,36.0,29.0,27.00,SSE,157,0.0,5.0,76,0.00,,,0.00,Rainwise IP-100,2013-04-01 12:23:00,
2013-04-01 06:28:00,35.0,28.0,27.00,SSE,157,2.0,2.0,76,0.00,,,0.00,Rainwise IP-100,2013-04-01 12:28:00,
2013-04-01 06:33:00,35.0,28.0,27.00,SSW,202,0.0,3.0,77,0.00,,,0.00,Rainwise IP-100,2013-04-01 12:33:00,
2013-04-01 06:38:00,35.0,28.0,27.00,SSE,157,0.0,2.0,77,0.00,,,0.00,Rainwise IP-100,2013-04-01 12:38:00,
2013-04-01 06:43:00,35.0,28.0,27.00,South,180,1.0,4.0,77,0.00,,,0.00,Rainwise IP-100,2013-04-01 12:43:00,
2013-04-01 06:48:00,35.0,28.0,27.00,South,180,1.0,4.0,77,0.00,,,0.00,Rainwise IP-100,2013-04-01 12:48:00,
2013-04-01 06:53:00,35.0,29.0,27.00,South,180,1.0,2.0,78,0.00,,,0.00,Rainwise IP-100,2013-04-01 12:53:00,
2013-04-01 06:58:00,35.0,28.0,27.00,South,180,2.0,4.0,77,0.00,,,0.00,Rainwise IP-100,2013-04-01 12:58:00,
2013-04-01 07:03:00,35.0,29.0,27.00,WSW,247,1.0,3.0,78,0.00,,,0.00,Rainwise IP-100,2013-04-01 13:03:00,
2013-04-01 07:08:00,34.0,29.0,27.00,WSW,247,0.0,1.0,78,0.00,,,0.00,Rainwise IP-100,2013-04-01 13:08:00,
2013-04-01 07:13:00,34.0,29.0,27.00,SSE,157,3.0,4.0,79,0.00,,,0.00,Rainwise IP-100,2013-04-01 13:13:00,
2013-04-01 07:18:00,35.0,29.0,27.01,South,180,0.0,5.0,79,0.00,,,0.00,Rainwise IP-100,2013-04-01 13:18:00,
2013-04-01 07:23:00,35.0,29.0,27.01,SSE,157,3.0,5.0,79,0.00,,,0.00,Rainwise IP-100,2013-04-01 13:23:00,
2013-04-01 07:28:00,35.0,28.0,27.01,SE,135,1.0,4.0,77,0.00,,,0.00,Rainwise IP-100,2013-04-01 13:28:00,
2013-04-01 07:33:00,35.0,29.0,27.01,SSE,157,2.0,4.0,79,0.00,,,0.00,Rainwise IP-100,2013-04-01 13:33:00,
2013-04-01 07:38:00,35.0,29.0,27.01,SE,135,2.0,5.0,78,0.00,,,0.00,Rainwise IP-100,2013-04-01 13:38:00,
2013-04-01 07:43:00,36.0,29.0,27.01,SSE,157,5.0,6.0,77,0.00,,,0.00,Rainwise IP-100,2013-04-01 13:43:00,
2013-04-01 07:48:00,36.0,29.0,27.00,SSE,157,3.0,6.0,76,0.00,,,0.00,Rainwise IP-100,2013-04-01 13:48:00,
2013-04-01 07:53:00,37.0,31.0,27.00,South,180,4.0,5.0,75,0.00,,,0.00,Rainwise IP-100,2013-04-01 13:53:00,
2013-04-01 07:58:00,37.0,29.0,27.00,South,180,2.0,5.0,74,0.00,,,0.00,Rainwise IP-100,2013-04-01 13:58:00,
2013-04-01 08:03:00,37.0,29.0,27.00,South,180,4.0,4.0,74,0.00,,,0.00,Rainwise IP-100,2013-04-01 14:03:00,
2013-04-01 08:08:00,38.0,29.0,26.99,South,180,3.0,6.0,71,0.00,,,0.00,Rainwise IP-100,2013-04-01 14:08:00,
2013-04-01 08:13:00,38.0,29.0,26.99,SSW,202,4.0,6.0,70,0.00,,,0.00,Rainwise IP-100,2013-04-01 14:13:00,
2013-04-01 08:18:00,39.0,29.0,26.99,SE,135,4.0,5.0,68,0.00,,,0.00,Rainwise IP-100,2013-04-01 14:18:00,
2013-04-01 08:23:00,39.0,29.0,26.99,SW,225,3.0,7.0,67,0.00,,,0.00,Rainwise IP-100,2013-04-01 14:23:00,
2013-04-01 08:28:00,40.0,31.0,26.98,SW,225,0.0,7.0,66,0.00,,,0.00,Rainwise IP-100,2013-04-01 14:28:00,
2013-04-01 08:33:00,40.0,29.0,26.98,SSW,202,4.0,7.0,65,0.00,,,0.00,Rainwise IP-100,2013-04-01 14:33:00,
2013-04-01 08:38:00,41.0,31.0,26.98,South,180,2.0,5.0,65,0.00,,,0.00,Rainwise IP-100,2013-04-01 14:38:00,
2013-04-01 08:43:00,41.0,31.0,26.98,WSW,247,1.0,5.0,64,0.00,,,0.00,Rainwise IP-100,2013-04-01 14:43:00,
2013-04-01 08:48:00,42.0,31.0,26.97,SSE,157,5.0,5.0,63,0.00,,,0.00,Rainwise IP-100,2013-04-01 14:48:00,
2013-04-01 08:53:00,42.0,31.0,26.97,South,180,1.0,6.0,63,0.00,,,0.00,Rainwise IP-100,2013-04-01 14:53:00,
2013-04-01 08:58:00,43.0,31.0,26.97,South,180,2.0,4.0,61,0.00,,,0.00,Rainwise IP-100,2013-04-01 14:58:00,
2013-04-01 09:03:00,44.0,32.0,26.97,SSE,157,0.0,6.0,61,0.00,,,0.00,Rainwise IP-100,2013-04-01 15:03:00,
2013-04-01 09:08:00,44.0,31.0,26.96,South,180,3.0,5.0,60,0.00,,,0.00,Rainwise IP-100,2013-04-01 15:08:00,
2013-04-01 09:13:00,45.0,32.0,26.96,SE,135,3.0,5.0,60,0.00,,,0.00,Rainwise IP-100,2013-04-01 15:13:00,
2013-04-01 09:18:00,45.0,32.0,26.95,WSW,247,1.0,7.0,60,0.00,,,0.00,Rainwise IP-100,2013-04-01 15:18:00,
2013-04-01 09:23:00,45.0,31.0,26.95,ESE,112,1.0,6.0,58,0.00,,,0.00,Rainwise IP-100,2013-04-01 15:23:00,
2013-04-01 09:28:00,45.0,32.0,26.95,South,180,3.0,7.0,60,0.00,,,0.00,Rainwise IP-100,2013-04-01 15:28:00,
2013-04-01 09:33:00,46.0,32.0,26.95,SSW,202,5.0,7.0,57,0.00,,,0.00,Rainwise IP-100,2013-04-01 15:33:00,
2013-04-01 09:38:00,46.0,31.0,26.95,WSW,247,0.0,6.0,56,0.00,,,0.00,Rainwise IP-100,2013-04-01 15:38:00,
2013-04-01 09:43:00,47.0,32.0,26.95,SSE,157,2.0,6.0,55,0.00,,,0.00,Rainwise IP-100,2013-04-01 15:43:00,
2013-04-01 09:48:00,47.0,31.0,26.94,SW,225,3.0,7.0,54,0.00,,,0.00,Rainwise IP-100,2013-04-01 15:48:00,
2013-04-01 09:53:00,48.0,32.0,26.94,SE,135,4.0,6.0,52,0.00,,,0.00,Rainwise IP-100,2013-04-01 15:53:00,
2013-04-01 09:58:00,48.0,31.0,26.93,South,180,4.0,7.0,51,0.00,,,0.00,Rainwise IP-100,2013-04-01 15:58:00,
2013-04-01 10:03:00,49.0,31.0,26.93,SE,135,3.0,6.0,48,0.00,,,0.00,Rainwise IP-100,2013-04-01 16:03:00,
2013-04-01 10:08:00,49.0,31.0,26.93,SSE,157,6.0,7.0,48,0.00,,,0.00,Rainwise IP-100,2013-04-01 16:08:00,
2013-04-01 10:13:00,49.0,31.0,26.93,South,180,6.0,7.0,49,0.00,,,0.00,Rainwise IP-100,2013-04-01 16:13:00,
2013-04-01 10:18:00,50.0,31.0,26.93,SE,135,5.0,6.0,47,0.00,,,0.00,Rainwise IP-100,2013-04-01 16:18:00,
2013-04-01 10:23:00,51.0,31.0,26.93,South,180,0.0,7.0,45,0.00,,,0.00,Rainwise IP-100,2013-04-01 16:23:00,
2013-04-01 10:28:00,51.0,31.0,26.92,South,180,6.0,6.0,45,0.00,,,0.00,Rainwise IP-100,2013-04-01 16:28:00,
2013-04-01 10:33:00,52.0,31.0,26.92,South,180,2.0,6.0,44,0.00,,,0.00,Rainwise IP-100,2013-04-01 16:33:00,
2013-04-01 10:38:00,53.0,31.0,26.90,East,90,2.0,7.0,43,0.00,,,0.00,Rainwise IP-100,2013-04-01 16:38:00,
2013-04-01 10:43:00,52.0,31.0,26.90,WNW,292,6.0,7.0,43,0.00,,,0.00,Rainwise IP-100,2013-04-01 16:43:00,
2013-04-01 10:48:00,53.0,31.0,26.91,WSW,247,3.0,6.0,43,0.00,,,0.00,Rainwise IP-100,2013-04-01 16:48:00,
2013-04-01 10:53:00,53.0,31.0,26.91,SSE,157,3.0,7.0,43,0.00,,,0.00,Rainwise IP-100,2013-04-01 16:53:00,
2013-04-01 10:58:00,53.0,31.0,26.90,SE,135,5.0,5.0,43,0.00,,,0.00,Rainwise IP-100,2013-04-01 16:58:00,
2013-04-01 11:03:00,53.0,29.0,26.90,WSW,247,0.0,6.0,41,0.00,,,0.00,Rainwise IP-100,2013-04-01 17:03:00,
2013-04-01 11:08:00,54.0,31.0,26.90,WNW,292,2.0,3.0,41,0.00,,,0.00,Rainwise IP-100,2013-04-01 17:08:00,
2013-04-01 11:13:00,55.0,31.0,26.90,West,270,3.0,6.0,39,0.00,,,0.00,Rainwise IP-100,2013-04-01 17:13:00,
2013-04-01 11:18:00,55.0,31.0,26.89,WSW,247,2.0,6.0,39,0.00,,,0.00,Rainwise IP-100,2013-04-01 17:18:00,
2013-04-01 11:23:00,55.0,31.0,26.89,South,180,1.0,7.0,38,0.00,,,0.00,Rainwise IP-100,2013-04-01 17:23:00,
2013-04-01 11:28:00,55.0,31.0,26.88,SSW,202,3.0,7.0,38,0.00,,,0.00,Rainwise IP-100,2013-04-01 17:28:00,
2013-04-01 11:33:00,56.0,31.0,26.88,South,180,3.0,6.0,37,0.00,,,0.00,Rainwise IP-100,2013-04-01 17:33:00,
2013-04-01 11:38:00,57.0,31.0,26.88,South,180,3.0,6.0,36,0.00,,,0.00,Rainwise IP-100,2013-04-01 17:38:00,
2013-04-01 11:43:00,58.0,32.0,26.87,WSW,247,5.0,6.0,36,0.00,,,0.00,Rainwise IP-100,2013-04-01 17:43:00,
2013-04-01 11:48:00,57.0,31.0,26.87,SSW,202,6.0,8.0,36,0.00,,,0.00,Rainwise IP-100,2013-04-01 17:48:00,
2013-04-01 11:53:00,57.0,31.0,26.87,West,270,2.0,7.0,36,0.00,,,0.00,Rainwise IP-100,2013-04-01 17:53:00,
2013-04-01 11:58:00,58.0,32.0,26.87,South,180,1.0,7.0,37,0.00,,,0.00,Rainwise IP-100,2013-04-01 17:58:00,
2013-04-01 12:03:00,59.0,32.0,26.87,West,270,4.0,7.0,35,0.00,,,0.00,Rainwise IP-100,2013-04-01 18:03:00,
2013-04-01 12:08:00,60.0,31.0,26.86,SE,135,6.0,6.0,33,0.00,,,0.00,Rainwise IP-100,2013-04-01 18:08:00,
2013-04-01 12:13:00,60.0,31.0,26.85,SE,135,1.0,6.0,32,0.00,,,0.00,Rainwise IP-100,2013-04-01 18:13:00,
2013-04-01 12:18:00,59.0,31.0,26.85,SW,225,6.0,9.0,33,0.00,,,0.00,Rainwise IP-100,2013-04-01 18:18:00,
2013-04-01 12:23:00,60.0,31.0,26.85,South,180,6.0,7.0,32,0.00,,,0.00,Rainwise IP-100,2013-04-01 18:23:00,
2013-04-01 12:28:00,60.0,31.0,26.85,SSE,157,0.0,8.0,33,0.00,,,0.00,Rainwise IP-100,2013-04-01 18:28:00,
2013-04-01 12:33:00,61.0,31.0,26.84,SW,225,3.0,6.0,32,0.00,,,0.00,Rainwise IP-100,2013-04-01 18:33:00,
2013-04-01 12:38:00,61.0,31.0,26.84,SSE,157,2.0,6.0,32,0.00,,,0.00,Rainwise IP-100,2013-04-01 18:38:00,
2013-04-01 12:43:00,62.0,31.0,26.83,ESE,112,2.0,7.0,30,0.00,,,0.00,Rainwise IP-100,2013-04-01 18:43:00,
2013-04-01 12:48:00,62.0,31.0,26.83,NE,45,3.0,10.0,30,0.00,,,0.00,Rainwise IP-100,2013-04-01 18:48:00,
2013-04-01 12:54:00,62.0,31.0,26.83,East,90,3.0,10.0,31,0.00,,,0.00,Rainwise IP-100,2013-04-01 18:54:00,
2013-04-01 12:59:00,62.0,29.0,26.83,ENE,67,7.0,9.0,29,0.00,,,0.00,Rainwise IP-100,2013-04-01 18:59:00,
2013-04-01 13:04:00,61.0,29.0,26.83,North,360,6.0,13.0,29,0.00,,,0.00,Rainwise IP-100,2013-04-01 19:04:00,
2013-04-01 13:09:00,61.0,29.0,26.83,ESE,112,1.0,12.0,30,0.00,,,0.00,Rainwise IP-100,2013-04-01 19:09:00,
2013-04-01 13:14:00,62.0,29.0,26.82,NNW,337,6.0,11.0,29,0.00,,,0.00,Rainwise IP-100,2013-04-01 19:14:00,
2013-04-01 13:19:00,62.0,31.0,26.82,ENE,67,1.0,10.0,30,0.00,,,0.00,Rainwise IP-100,2013-04-01 19:19:00,
2013-04-01 13:24:00,63.0,31.0,26.81,NE,45,0.0,9.0,29,0.00,,,0.00,Rainwise IP-100,2013-04-01 19:24:00,
2013-04-01 13:29:00,63.0,29.0,26.81,NNW,337,1.0,7.0,28,0.00,,,0.00,Rainwise IP-100,2013-04-01 19:29:00,
2013-04-01 13:34:00,63.0,29.0,26.81,WNW,292,0.0,12.0,28,0.00,,,0.00,Rainwise IP-100,2013-04-01 19:34:00,
2013-04-01 13:39:00,64.0,31.0,26.81,NE,45,5.0,12.0,28,0.00,,,0.00,Rainwise IP-100,2013-04-01 19:39:00,
2013-04-01 13:44:00,65.0,31.0,26.79,North,360,7.0,7.0,28,0.00,,,0.00,Rainwise IP-100,2013-04-01 19:44:00,
2013-04-01 13:49:00,65.0,31.0,26.79,North,360,9.0,9.0,27,0.00,,,0.00,Rainwise IP-100,2013-04-01 19:49:00,
2013-04-01 13:54:00,64.0,29.0,26.79,ENE,67,10.0,12.0,27,0.00,,,0.00,Rainwise IP-100,2013-04-01 19:54:00,
2013-04-01 13:59:00,65.0,31.0,26.79,NW,315,3.0,12.0,28,0.00,,,0.00,Rainwise IP-100,2013-04-01 19:59:00,
2013-04-01 14:04:00,65.0,31.0,26.79,NNE,22,6.0,13.0,27,0.00,,,0.00,Rainwise IP-100,2013-04-01 20:04:00,
2013-04-01 14:09:00,66.0,32.0,26.79,North,360,5.0,9.0,28,0.00,,,0.00,Rainwise IP-100,2013-04-01 20:09:00,
2013-04-01 14:14:00,66.0,31.0,26.78,West,270,4.0,9.0,27,0.00,,,0.00,Rainwise IP-100,2013-04-01 20:14:00,
2013-04-01 14:19:00,66.0,31.0,26.78,NNW,337,7.0,9.0,27,0.00,,,0.00,Rainwise IP-100,2013-04-01 20:19:00,
2013-04-01 14:24:00,66.0,31.0,26.78,NNW,337,7.0,11.0,27,0.00,,,0.00,Rainwise IP-100,2013-04-01 20:24:00,
2013-04-01 14:29:00,66.0,31.0,26.78,NE,45,7.0,9.0,27,0.00,,,0.00,Rainwise IP-100,2013-04-01 20:29:00,
2013-04-01 14:34:00,66.0,31.0,26.77,ENE,67,6.0,11.0,27,0.00,,,0.00,Rainwise IP-100,2013-04-01 20:34:00,
2013-04-01 14:39:00,66.0,32.0,26.77,NE,45,6.0,11.0,28,0.00,,,0.00,Rainwise IP-100,2013-04-01 20:39:00,
2013-04-01 14:44:00,66.0,31.0,26.78,East,90,3.0,10.0,26,0.00,,,0.00,Rainwise IP-100,2013-04-01 20:44:00,
2013-04-01 14:49:00,66.0,29.0,26.78,SE,135,5.0,10.0,25,0.00,,,0.00,Rainwise IP-100,2013-04-01 20:49:00,
2013-04-01 14:54:00,66.0,31.0,26.77,ENE,67,7.0,8.0,26,0.00,,,0.00,Rainwise IP-100,2013-04-01 20:54:00,
2013-04-01 14:59:00,67.0,31.0,26.77,NE,45,5.0,12.0,25,0.00,,,0.00,Rainwise IP-100,2013-04-01 20:59:00,
2013-04-01 15:04:00,67.0,31.0,26.77,East,90,2.0,7.0,25,0.00,,,0.00,Rainwise IP-100,2013-04-01 21:04:00,
2013-04-01 15:09:00,66.0,28.0,26.77,ESE,112,7.0,9.0,24,0.00,,,0.00,Rainwise IP-100,2013-04-01 21:09:00,
2013-04-01 15:14:00,67.0,29.0,26.76,NNE,22,4.0,9.0,24,0.00,,,0.00,Rainwise IP-100,2013-04-01 21:14:00,
2013-04-01 15:19:00,67.0,29.0,26.76,NNE,22,1.0,9.0,24,0.00,,,0.00,Rainwise IP-100,2013-04-01 21:19:00,
2013-04-01 15:24:00,68.0,31.0,26.76,NNE,22,5.0,8.0,24,0.00,,,0.00,Rainwise IP-100,2013-04-01 21:24:00,
2013-04-01 15:29:00,68.0,31.0,26.76,NNE,22,2.0,7.0,24,0.00,,,0.00,Rainwise IP-100,2013-04-01 21:29:00,
2013-04-01 15:34:00,69.0,31.0,26.75,NE,45,2.0,3.0,24,0.00,,,0.00,Rainwise IP-100,2013-04-01 21:34:00,
2013-04-01 15:39:00,69.0,29.0,26.75,NE,45,7.0,7.0,22,0.00,,,0.00,Rainwise IP-100,2013-04-01 21:39:00,
2013-04-01 15:44:00,69.0,29.0,26.75,NE,45,3.0,8.0,22,0.00,,,0.00,Rainwise IP-100,2013-04-01 21:44:00,
2013-04-01 15:49:00,68.0,31.0,26.75,East,90,1.0,7.0,24,0.00,,,0.00,Rainwise IP-100,2013-04-01 21:49:00,
2013-04-01 15:54:00,68.0,29.0,26.75,North,360,7.0,10.0,23,0.00,,,0.00,Rainwise IP-100,2013-04-01 21:54:00,
2013-04-01 15:59:00,68.0,29.0,26.75,WNW,292,3.0,10.0,23,0.00,,,0.00,Rainwise IP-100,2013-04-01 21:59:00,
2013-04-01 16:04:00,69.0,31.0,26.74,NNW,337,9.0,9.0,24,0.00,,,0.00,Rainwise IP-100,2013-04-01 22:04:00,
2013-04-01 16:09:00,68.0,31.0,26.74,West,270,11.0,12.0,25,0.00,,,0.00,Rainwise IP-100,2013-04-01 22:09:00,
2013-04-01 16:14:00,67.0,31.0,26.75,NW,315,9.0,11.0,25,0.00,,,0.00,Rainwise IP-100,2013-04-01 22:14:00,
2013-04-01 16:19:00,67.0,31.0,26.75,WNW,292,4.0,10.0,25,0.00,,,0.00,Rainwise IP-100,2013-04-01 22:19:00,
2013-04-01 16:24:00,67.0,31.0,26.75,West,270,6.0,12.0,26,0.00,,,0.00,Rainwise IP-100,2013-04-01 22:24:00,
2013-04-01 16:29:00,68.0,31.0,26.75,WNW,292,2.0,10.0,25,0.00,,,0.00,Rainwise IP-100,2013-04-01 22:29:00,
2013-04-01 16:34:00,68.0,31.0,26.75,NNW,337,6.0,12.0,24,0.00,,,0.00,Rainwise IP-100,2013-04-01 22:34:00,
2013-04-01 16:39:00,69.0,31.0,26.75,NNE,22,3.0,9.0,24,0.00,,,0.00,Rainwise IP-100,2013-04-01 22:39:00,
2013-04-01 16:44:00,69.0,31.0,26.74,North,360,4.0,11.0,24,0.00,,,0.00,Rainwise IP-100,2013-04-01 22:44:00,
2013-04-01 16:49:00,69.0,29.0,26.74,North,360,8.0,8.0,22,0.00,,,0.00,Rainwise IP-100,2013-04-01 22:49:00,
2013-04-01 16:54:00,69.0,29.0,26.74,NE,45,5.0,10.0,22,0.00,,,0.00,Rainwise IP-100,2013-04-01 22:54:00,
2013-04-01 16:59:00,69.0,31.0,26.74,WNW,292,4.0,7.0,24,0.00,,,0.00,Rainwise IP-100,2013-04-01 22:59:00,
2013-04-01 17:04:00,70.0,31.0,26.73,West,270,3.0,7.0,23,0.00,,,0.00,Rainwise IP-100,2013-04-01 23:04:00,
2013-04-01 17:09:00,68.0,31.0,26.73,WNW,292,4.0,9.0,24,0.00,,,0.00,Rainwise IP-100,2013-04-01 23:09:00,
2013-04-01 17:14:00,69.0,29.0,26.73,NNW,337,0.0,9.0,22,0.00,,,0.00,Rainwise IP-100,2013-04-01 23:14:00,
2013-04-01 17:19:00,70.0,29.0,26.73,NW,315,4.0,10.0,22,0.00,,,0.00,Rainwise IP-100,2013-04-01 23:19:00,
2013-04-01 17:24:00,70.0,29.0,26.73,NW,315,0.0,6.0,22,0.00,,,0.00,Rainwise IP-100,2013-04-01 23:24:00,
2013-04-01 17:29:00,70.0,29.0,26.73,NNW,337,6.0,6.0,22,0.00,,,0.00,Rainwise IP-100,2013-04-01 23:29:00,
2013-04-01 17:34:00,70.0,29.0,26.73,North,360,2.0,8.0,22,0.00,,,0.00,Rainwise IP-100,2013-04-01 23:34:00,
2013-04-01 17:39:00,70.0,29.0,26.73,North,360,1.0,4.0,22,0.00,,,0.00,Rainwise IP-100,2013-04-01 23:39:00,
2013-04-01 17:44:00,70.0,31.0,26.73,WNW,292,2.0,9.0,23,0.00,,,0.00,Rainwise IP-100,2013-04-01 23:44:00,
2013-04-01 17:49:00,68.0,31.0,26.73,NW,315,5.0,10.0,24,0.00,,,0.00,Rainwise IP-100,2013-04-01 23:49:00,
2013-04-01 17:54:00,68.0,31.0,26.74,West,270,3.0,9.0,24,0.00,,,0.00,Rainwise IP-100,2013-04-01 23:54:00,
2013-04-01 17:59:00,68.0,31.0,26.74,NW,315,5.0,9.0,24,0.00,,,0.00,Rainwise IP-100,2013-04-01 23:59:00,
2013-04-01 18:04:00,68.0,31.0,26.74,WNW,292,2.0,9.0,24,0.00,,,0.00,Rainwise IP-100,2013-04-02 00:04:00,
2013-04-01 18:09:00,67.0,31.0,26.74,WNW,292,3.0,9.0,25,0.00,,,0.00,Rainwise IP-100,2013-04-02 00:09:00,
2013-04-01 18:14:00,67.0,31.0,26.75,West,270,7.0,9.0,25,0.00,,,0.00,Rainwise IP-100,2013-04-02 00:14:00,
2013-04-01 18:19:00,67.0,31.0,26.75,WNW,292,6.0,9.0,26,0.00,,,0.00,Rainwise IP-100,2013-04-02 00:19:00,
2013-04-01 18:24:00,67.0,32.0,26.75,WNW,292,5.0,10.0,27,0.00,,,0.00,Rainwise IP-100,2013-04-02 00:24:00,
2013-04-01 18:29:00,67.0,32.0,26.75,NW,315,6.0,9.0,27,0.00,,,0.00,Rainwise IP-100,2013-04-02 00:29:00,
2013-04-01 18:34:00,67.0,31.0,26.75,WNW,292,6.0,9.0,26,0.00,,,0.00,Rainwise IP-100,2013-04-02 00:34:00,
2013-04-01 18:39:00,67.0,31.0,26.75,WNW,292,5.0,8.0,26,0.00,,,0.00,Rainwise IP-100,2013-04-02 00:39:00,
2013-04-01 18:44:00,67.0,31.0,26.75,WSW,247,4.0,7.0,25,0.00,,,0.00,Rainwise IP-100,2013-04-02 00:44:00,
2013-04-01 18:49:00,66.0,31.0,26.75,NW,315,9.0,11.0,26,0.00,,,0.00,Rainwise IP-100,2013-04-02 00:49:00,
2013-04-01 18:54:00,67.0,31.0,26.75,North,360,9.0,10.0,26,0.00,,,0.00,Rainwise IP-100,2013-04-02 00:54:00,
2013-04-01 18:59:00,66.0,31.0,26.75,WNW,292,2.0,10.0,27,0.00,,,0.00,Rainwise IP-100,2013-04-02 00:59:00,
2013-04-01 19:04:00,66.0,31.0,26.76,NW,315,2.0,6.0,27,0.00,,,0.00,Rainwise IP-100,2013-04-02 01:04:00,
2013-04-01 19:09:00,65.0,31.0,26.76,West,270,6.0,9.0,27,0.00,,,0.00,Rainwise IP-100,2013-04-02 01:09:00,
2013-04-01 19:14:00,65.0,31.0,26.76,WNW,292,4.0,7.0,27,0.00,,,0.00,Rainwise IP-100,2013-04-02 01:14:00,
2013-04-01 19:19:00,64.0,31.0,26.76,West,270,3.0,7.0,28,0.00,,,0.00,Rainwise IP-100,2013-04-02 01:19:00,
2013-04-01 19:24:00,64.0,31.0,26.77,West,270,5.0,5.0,28,0.00,,,0.00,Rainwise IP-100,2013-04-02 01:24:00,
2013-04-01 19:29:00,64.0,31.0,26.77,West,270,3.0,6.0,29,0.00,,,0.00,Rainwise IP-100,2013-04-02 01:29:00,
2013-04-01 19:34:00,64.0,31.0,26.77,West,270,3.0,6.0,29,0.00,,,0.00,Rainwise IP-100,2013-04-02 01:34:00,
2013-04-01 19:39:00,64.0,32.0,26.77,WSW,247,1.0,6.0,30,0.00,,,0.00,Rainwise IP-100,2013-04-02 01:39:00,
2013-04-01 19:44:00,63.0,31.0,26.77,West,270,3.0,7.0,29,0.00,,,0.00,Rainwise IP-100,2013-04-02 01:44:00,
2013-04-01 19:49:00,63.0,32.0,26.77,WNW,292,5.0,6.0,31,0.00,,,0.00,Rainwise IP-100,2013-04-02 01:49:00,
2013-04-01 19:54:00,62.0,31.0,26.78,West,270,4.0,5.0,31,0.00,,,0.00,Rainwise IP-100,2013-04-02 01:54:00,
2013-04-01 19:59:00,61.0,32.0,26.78,West,270,4.0,5.0,33,0.00,,,0.00,Rainwise IP-100,2013-04-02 01:59:00,
2013-04-01 20:04:00,61.0,32.0,26.79,West,270,1.0,6.0,34,0.00,,,0.00,Rainwise IP-100,2013-04-02 02:04:00,
2013-04-01 20:09:00,60.0,33.0,26.79,West,270,1.0,2.0,36,0.00,,,0.00,Rainwise IP-100,2013-04-02 02:09:00,
2013-04-01 20:14:00,59.0,32.0,26.80,West,270,1.0,2.0,36,0.00,,,0.00,Rainwise IP-100,2013-04-02 02:14:00,
2013-04-01 20:19:00,58.0,33.0,26.80,West,270,0.0,1.0,38,0.00,,,0.00,Rainwise IP-100,2013-04-02 02:19:00,
2013-04-01 20:24:00,58.0,33.0,26.81,SW,225,1.0,0.0,38,0.00,,,0.00,Rainwise IP-100,2013-04-02 02:24:00,
2013-04-01 20:29:00,57.0,32.0,26.81,SW,225,0.0,3.0,39,0.00,,,0.00,Rainwise IP-100,2013-04-02 02:29:00,
2013-04-01 20:34:00,56.0,32.0,26.82,SW,225,0.0,0.0,41,0.00,,,0.00,Rainwise IP-100,2013-04-02 02:34:00,
2013-04-01 20:40:00,56.0,33.0,26.82,SSE,157,3.0,4.0,43,0.00,,,0.00,Rainwise IP-100,2013-04-02 02:40:00,
2013-04-01 20:45:00,56.0,33.0,26.83,South,180,0.0,5.0,42,0.00,,,0.00,Rainwise IP-100,2013-04-02 02:45:00,
2013-04-01 20:50:00,55.0,33.0,26.83,ESE,112,1.0,5.0,44,0.00,,,0.00,Rainwise IP-100,2013-04-02 02:50:00,
2013-04-01 20:55:00,55.0,33.0,26.83,ENE,67,5.0,6.0,44,0.00,,,0.00,Rainwise IP-100,2013-04-02 02:55:00,
2013-04-01 21:00:00,55.0,33.0,26.83,ESE,112,3.0,6.0,44,0.00,,,0.00,Rainwise IP-100,2013-04-02 03:00:00,
2013-04-01 21:05:00,55.0,33.0,26.84,SE,135,2.0,5.0,43,0.00,,,0.00,Rainwise IP-100,2013-04-02 03:05:00,
2013-04-01 21:10:00,54.0,32.0,26.84,East,90,2.0,3.0,44,0.00,,,0.00,Rainwise IP-100,2013-04-02 03:10:00,
2013-04-01 21:15:00,54.0,32.0,26.85,ESE,112,0.0,5.0,43,0.00,,,0.00,Rainwise IP-100,2013-04-02 03:15:00,
2013-04-01 21:20:00,54.0,32.0,26.85,ESE,112,4.0,6.0,44,0.00,,,0.00,Rainwise IP-100,2013-04-02 03:20:00,
2013-04-01 21:25:00,54.0,32.0,26.85,ESE,112,3.0,4.0,44,0.00,,,0.00,Rainwise IP-100,2013-04-02 03:25:00,
2013-04-01 21:30:00,53.0,33.0,26.85,SE,135,3.0,5.0,47,0.00,,,0.00,Rainwise IP-100,2013-04-02 03:30:00,
2013-04-01 21:35:00,53.0,33.0,26.86,SE,135,1.0,5.0,47,0.00,,,0.00,Rainwise IP-100,2013-04-02 03:35:00,
2013-04-01 21:40:00,52.0,33.0,26.86,SE,135,2.0,3.0,48,0.00,,,0.00,Rainwise IP-100,2013-04-02 03:40:00,
2013-04-01 21:45:00,52.0,33.0,26.87,SE,135,0.0,4.0,48,0.00,,,0.00,Rainwise IP-100,2013-04-02 03:45:00,
2013-04-01 21:50:00,51.0,32.0,26.87,SE,135,0.0,2.0,47,0.00,,,0.00,Rainwise IP-100,2013-04-02 03:50:00,
2013-04-01 21:55:00,51.0,32.0,26.87,ESE,112,3.0,4.0,47,0.00,,,0.00,Rainwise IP-100,2013-04-02 03:55:00,
2013-04-01 22:00:00,51.0,32.0,26.87,ENE,67,5.0,5.0,47,0.00,,,0.00,Rainwise IP-100,2013-04-02 04:00:00,
2013-04-01 22:01:00,51.0,32.0,26.87,ESE,112,3.0,5.0,47,0.00,,,0.00,Rainwise IP-100,2013-04-02 04:01:00,
2013-04-01 22:06:00,51.0,32.0,26.88,SE,135,2.0,5.0,47,0.00,,,0.00,Rainwise IP-100,2013-04-02 04:06:00,
2013-04-01 22:11:00,50.0,31.0,26.88,South,180,0.0,4.0,48,0.00,,,0.00,Rainwise IP-100,2013-04-02 04:11:00,
2013-04-01 22:16:00,50.0,32.0,26.89,South,180,0.0,2.0,49,0.00,,,0.00,Rainwise IP-100,2013-04-02 04:16:00,
2013-04-01 22:21:00,50.0,32.0,26.89,SE,135,2.0,5.0,50,0.00,,,0.00,Rainwise IP-100,2013-04-02 04:21:00,
2013-04-01 22:26:00,50.0,32.0,26.89,ESE,112,3.0,4.0,49,0.00,,,0.00,Rainwise IP-100,2013-04-02 04:26:00,
2013-04-01 22:31:00,50.0,31.0,26.89,East,90,3.0,5.0,48,0.00,,,0.00,Rainwise IP-100,2013-04-02 04:31:00,
2013-04-01 22:36:00,50.0,31.0,26.89,ESE,112,3.0,6.0,48,0.00,,,0.00,Rainwise IP-100,2013-04-02 04:36:00,
2013-04-01 22:41:00,50.0,31.0,26.89,ESE,112,4.0,6.0,48,0.00,,,0.00,Rainwise IP-100,2013-04-02 04:41:00,
2013-04-01 22:46:00,50.0,31.0,26.89,ESE,112,3.0,6.0,48,0.00,,,0.00,Rainwise IP-100,2013-04-02 04:46:00,
2013-04-01 22:51:00,50.0,32.0,26.89,East,90,2.0,5.0,49,0.00,,,0.00,Rainwise IP-100,2013-04-02 04:51:00,
2013-04-01 22:56:00,50.0,32.0,26.89,ESE,112,2.0,6.0,50,0.00,,,0.00,Rainwise IP-100,2013-04-02 04:56:00,
2013-04-01 23:01:00,49.0,32.0,26.89,SE,135,1.0,5.0,50,0.00,,,0.00,Rainwise IP-100,2013-04-02 05:01:00,
2013-04-01 23:06:00,49.0,32.0,26.90,ENE,67,1.0,4.0,50,0.00,,,0.00,Rainwise IP-100,2013-04-02 05:06:00,
2013-04-01 23:11:00,49.0,32.0,26.90,ESE,112,3.0,5.0,52,0.00,,,0.00,Rainwise IP-100,2013-04-02 05:11:00,
2013-04-01 23:16:00,49.0,32.0,26.90,East,90,1.0,7.0,52,0.00,,,0.00,Rainwise IP-100,2013-04-02 05:16:00,
2013-04-01 23:21:00,49.0,32.0,26.90,ESE,112,3.0,6.0,52,0.00,,,0.00,Rainwise IP-100,2013-04-02 05:21:00,
2013-04-01 23:26:00,49.0,32.0,26.90,ENE,67,1.0,8.0,52,0.00,,,0.00,Rainwise IP-100,2013-04-02 05:26:00,
2013-04-01 23:31:00,48.0,32.0,26.90,ESE,112,3.0,7.0,52,0.00,,,0.00,Rainwise IP-100,2013-04-02 05:31:00,
2013-04-01 23:36:00,48.0,32.0,26.91,ESE,112,4.0,7.0,52,0.00,,,0.00,Rainwise IP-100,2013-04-02 05:36:00,
2013-04-01 23:41:00,48.0,32.0,26.91,East,90,4.0,9.0,53,0.00,,,0.00,Rainwise IP-100,2013-04-02 05:41:00,
2013-04-01 23:46:00,48.0,32.0,26.90,ENE,67,6.0,8.0,53,0.00,,,0.00,Rainwise IP-100,2013-04-02 05:46:00,
2013-04-01 23:52:00,48.0,32.0,26.90,ESE,112,5.0,7.0,53,0.00,,,0.00,Rainwise IP-100,2013-04-02 05:52:00,
2013-04-01 23:57:00,48.0,32.0,26.91,East,90,2.0,8.0,53,0.00,,,0.00,Rainwise IP-100,2013-04-02 05:57:00,